Shelbyville, IN

1:44 AM EST on February 27, 2017 (GMT -0500)
Shelbyville Municipal

Weather History for KGEZ - February, 2012

Change the Weather History Date:

Thursday, February 2, 2012

  Actual Average Record
Temperature  
Mean Temperature 42 °F 29 °F  
Max Temperature 53 °F 37 °F 61 °F (2016)
Min Temperature 30 °F 22 °F 8 °F (2001)
Degree Days  
Heating Degree Days 23 36  
Month to date heating degree days 37 72  
Since 1 July heating degree days 2723 3301  
Cooling Degree Days 0 0  
Month to date cooling degree days 0 0  
Year to date cooling degree days 0 0  
Moisture  
Dew Point 34 °F    
Average Humidity 71    
Maximum Humidity 92    
Minimum Humidity 50    
Precipitation  
Precipitation 0.00 in 0.08 in 1.12 in (2016)
Month to date precipitation 0.06 0.16  
Year to date precipitation 3.64 2.55  
Sea Level Pressure  
Sea Level Pressure 30.23 in    
Wind  
Wind Speed 4 mph (NNW)    
Max Wind Speed 9 mph    
Max Gust Speed 12 mph    
Visibility 4 miles    
Events Fog , Rain    
T = Trace of Precipitation, MM = Missing Value Source: NWS Daily Summary

Daily Weather History Graph

Daily Weather History Graph

Search for Another Location

Airport or City:

Trip Planner

Search our weather history database for the weather conditions in past years. The results will help you decide how hot, cold, wet, or windy it might be!

Date:

Astronomy

Feb. 02, 2012 Rise Set
Actual Time 7:50 AM EST 6:03 PM EST
Civil Twilight 7:21 AM EST 6:32 PM EST
Nautical Twilight 6:49 AM EST 7:04 PM EST
Astronomical Twilight 6:18 AM EST 7:36 PM EST
Moon 1:15 PM EST (2/2) 3:31 AM EST (2/2)
Length of Visible Light 11h 10m
Length of Day
10h 13m
Waxing Gibbous, 73% of the Moon is Illuminated
Feb 2
Waxing Gibbous
Feb 7
Full
Feb 14
Last Quarter
Feb 21
New
Feb 29
First Quarter

Hourly Weather History & Observations

Time (EST) Temp. Windchill Dew Point Humidity Pressure Visibility Wind Dir Wind Speed Gust Speed Precip Events Conditions
12:53 AM 39.0 °F - 36.0 °F 89% 30.10 in 4.0 mi Calm Calm - N/A   Clear
1:53 AM 37.0 °F 31.6 °F 34.0 °F 89% 30.12 in 3.0 mi NNW 6.9 mph - N/A   Clear
2:53 AM 37.0 °F 32.4 °F 35.1 °F 93% 30.13 in 3.0 mi NNW 5.8 mph - N/A   Clear
3:53 AM 36.0 °F 30.3 °F 34.0 °F 93% 30.14 in 3.0 mi NNW 6.9 mph - N/A   Clear
4:43 AM 35.6 °F 32.8 °F 33.8 °F 93% 30.14 in 2.5 mi NNW 3.5 mph - N/A   Clear
4:53 AM 35.1 °F 32.2 °F 33.1 °F 92% 30.15 in 2.0 mi NNW 3.5 mph - N/A   Clear
5:08 AM 35.6 °F 32.8 °F 33.8 °F 93% 30.14 in 1.8 mi NNW 3.5 mph - N/A   Clear
5:53 AM 34.0 °F - 30.9 °F 89% 30.17 in 0.5 mi Calm Calm - N/A Fog Fog
6:02 AM 33.8 °F - 30.2 °F 87% 30.17 in 0.2 mi Calm Calm - N/A Fog Fog
6:15 AM 33.8 °F 29.6 °F 30.2 °F 87% 30.17 in 0.5 mi NW 4.6 mph - 0.00 in Fog , Rain Light Rain
6:19 AM 32.0 °F 28.7 °F 30.2 °F 93% 30.17 in 0.2 mi NW 3.5 mph - 0.00 in Fog , Rain Light Freezing Rain
6:26 AM 30.2 °F - 30.2 °F 100% 30.18 in 0.2 mi Calm Calm - 0.00 in Fog , Rain Light Freezing Rain
6:50 AM 32.0 °F 28.7 °F 30.2 °F 93% 30.18 in 0.2 mi North 3.5 mph - 0.00 in Fog Fog
6:53 AM 32.0 °F 27.5 °F 30.9 °F 96% 30.20 in 0.2 mi NNW 4.6 mph - 0.00 in Fog Fog
7:53 AM 32.0 °F 28.7 °F 30.0 °F 92% 30.22 in 0.2 mi North 3.5 mph - N/A Fog Fog
8:53 AM 32.0 °F - 30.0 °F 92% 30.25 in 0.2 mi Calm Calm - N/A Fog Fog
9:28 AM 35.6 °F 32.8 °F 33.8 °F 93% 30.25 in 0.8 mi North 3.5 mph - N/A   Mist
9:35 AM 35.6 °F 32.8 °F 33.8 °F 93% 30.25 in 2.0 mi NE 3.5 mph - N/A   Mostly Cloudy
9:42 AM 37.4 °F 34.9 °F 33.8 °F 87% 30.26 in 2.5 mi NNE 3.5 mph - N/A   Scattered Clouds
9:53 AM 37.0 °F 34.5 °F 34.0 °F 89% 30.28 in 3.0 mi NNE 3.5 mph - N/A   Clear
10:53 AM 42.1 °F - 35.1 °F 76% 30.30 in 6.0 mi Calm Calm - N/A   Haze
11:25 AM 42.8 °F 41.1 °F 35.6 °F 76% 30.29 in 6.0 mi South 3.5 mph - N/A   Haze
11:35 AM 44.6 °F - 37.4 °F 76% 30.29 in 6.0 mi Calm Calm - N/A   Haze
11:53 AM 43.0 °F - 37.0 °F 80% 30.31 in 6.0 mi Calm Calm - N/A   Haze
12:53 PM 46.0 °F 44.8 °F 36.0 °F 68% 30.30 in 7.0 mi SW 3.5 mph - N/A   Partly Cloudy
1:53 PM 48.9 °F - 36.0 °F 61% 30.29 in 9.0 mi NW 6.9 mph - N/A   Clear
2:53 PM 52.0 °F - 37.0 °F 57% 30.28 in 9.0 mi WNW 5.8 mph - N/A   Clear
3:53 PM 53.1 °F - 35.1 °F 50% 30.28 in 10.0 mi NNW 5.8 mph - N/A   Clear
4:53 PM 52.0 °F - 35.1 °F 53% 30.30 in 10.0 mi NNW 4.6 mph - N/A   Clear
5:53 PM 48.9 °F - 34.0 °F 56% 30.31 in 10.0 mi Calm Calm - N/A   Clear
6:53 PM 43.0 °F - 34.0 °F 71% 30.33 in 10.0 mi Calm Calm - N/A   Clear
7:53 PM 41.0 °F 37.1 °F 34.0 °F 76% 30.33 in 9.0 mi ENE 5.8 mph - N/A   Clear
8:53 PM 37.9 °F 34.4 °F 33.1 °F 83% 30.35 in 9.0 mi East 4.6 mph - N/A   Clear
9:53 PM 37.0 °F 32.4 °F 33.1 °F 86% 30.37 in 8.0 mi East 5.8 mph - N/A   Clear
10:53 PM 35.1 °F 30.1 °F 30.9 °F 85% 30.37 in 7.0 mi East 5.8 mph - N/A   Clear
11:53 PM 35.1 °F - 30.9 °F 85% 30.37 in 6.0 mi Calm Calm - N/A   Clear